Eastsound, WA
on Friday, November 30, 2012

Friday
Previous Day Next Day
Daily Summary
 ActualAverage (KBLI)Record (KBLI)
Temperature
Mean Temperature °F 40°F  
Max Temperature 57°F 46°F 58°F (1958)
Min Temperature 50°F 34°F 18°F (1952)
Degree Days
Heating Degree Days 12 25  
Month to date heating degree days 653  
Cooling Degree Days 0 0  
Month to date cooling degree days 0  
Year to date cooling degree days 42  
Growing Degree Days4 (Base °F )  
Moisture
Dew Point 45°F   
Average Humidity 79    
Maximum Humidity 94    
Minimum Humidity 55    
Precipitation
Precipitation 0.00 in 0.19 in 1.26 in (1999)
Month to date precipitation 5.80  
Year to date precipitation 31.61  
Wind
Wind Speed 11 mph   
Max Wind Speed 20 mph   
Max Gust Speed 36 mph   
Visibility 9 miles   
Events Rain   

Key: T is trace of precipitation, MM is missing value
Source: NWS Daily Summary
Time(PST)TemperatureDew PointHumidity Pressure Visibility Wind DirectionWind SpeedGust SpeedPrecipitationEvents Conditions
12:15 AM 55.4°F 41.0°F 58% 29.37 in 10.0 miles SE 8.1 mph 21.9 mph N/A   Partly Cloudy
12:35 AM 55.4°F 41.0°F 58% 29.35 in 10.0 miles SSE 10.4 mph 23.0 mph N/A   Partly Cloudy
12:55 AM 55.4°F 41.0°F 58% 29.35 in 10.0 miles SSE 10.4 mph 19.6 mph N/A   Clear
1:15 AM 55.4°F 41.0°F 58% 29.34 in 10.0 miles SSE 10.4 mph 29.9 mph N/A   Clear
1:35 AM 57.2°F 41.0°F 55% 29.34 in 10.0 miles SSE 19.6 mph 35.7 mph N/A   Clear
1:55 AM 55.4°F 41.0°F 58% 29.33 in 10.0 miles SSE 11.5 mph 33.4 mph N/A   Partly Cloudy
2:15 AM 55.4°F 41.0°F 58% 29.32 in 10.0 miles SSE 11.5 mph 24.2 mph N/A   Partly Cloudy
2:35 AM 53.6°F 42.8°F 67% 29.32 in 10.0 miles South 15.0 mph 26.5 mph N/A   Clear
2:55 AM 53.6°F 42.8°F 67% 29.31 in 10.0 miles SSE 17.3 mph 34.5 mph N/A   Clear
3:15 AM 53.6°F 42.8°F 67% 29.31 in 10.0 miles SSE 17.3 mph 29.9 mph N/A   Clear
3:35 AM 53.6°F 42.8°F 67% 29.30 in 10.0 miles SSE 12.7 mph 33.4 mph N/A   Partly Cloudy
3:55 AM 53.6°F 44.6°F 72% 29.30 in 10.0 miles SSE 11.5 mph 25.3 mph N/A   Clear
4:15 AM 51.8°F 44.6°F 76% 29.31 in 10.0 miles SSE 10.4 mph 21.9 mph N/A   Scattered Clouds
4:35 AM 53.6°F 42.8°F 67% 29.31 in 10.0 miles SSE 11.5 mph 23.0 mph N/A Rain Light Rain
4:55 AM 53.6°F 44.6°F 72% 29.31 in 10.0 miles SSE 6.9 mph 20.7 mph N/A   Scattered Clouds
5:15 AM 51.8°F 44.6°F 76% 29.32 in 10.0 miles SSE 6.9 mph 16.1 mph N/A Rain Light Rain
5:35 AM 53.6°F 44.6°F 72% 29.31 in 10.0 miles SE 9.2 mph - N/A   Mostly Cloudy
5:55 AM 53.6°F 44.6°F 72% 29.30 in 10.0 miles SSE 8.1 mph - N/A   Scattered Clouds
6:15 AM 53.6°F 44.6°F 72% 29.28 in 10.0 miles SSE 8.1 mph 23.0 mph N/A   Partly Cloudy
6:35 AM 53.6°F 44.6°F 72% 29.28 in 10.0 miles SSE 10.4 mph 18.4 mph N/A   Clear
6:55 AM 53.6°F 44.6°F 72% 29.28 in 10.0 miles SSE 9.2 mph 18.4 mph N/A   Partly Cloudy
7:15 AM 53.6°F 44.6°F 72% 29.28 in 10.0 miles SSE 10.4 mph 16.1 mph N/A   Partly Cloudy
7:35 AM 53.6°F 42.8°F 67% 29.28 in 10.0 miles SSE 12.7 mph 19.6 mph N/A   Clear
7:55 AM 53.6°F 42.8°F 67% 29.29 in 10.0 miles SSE 8.1 mph - N/A   Clear
8:15 AM 53.6°F 44.6°F 72% 29.31 in 9.0 miles South 13.8 mph 24.2 mph N/A Rain Light Rain
8:35 AM 50.0°F 46.4°F 87% 29.33 in 6.0 miles South 11.5 mph 17.3 mph N/A Rain Light Rain
8:55 AM 50.0°F 46.4°F 87% 29.33 in 5.0 miles SSW 8.1 mph - N/A Rain Light Rain
9:15 AM 50.0°F 46.4°F 87% 29.33 in 10.0 miles South 5.8 mph - N/A   Overcast
9:35 AM 51.8°F 46.4°F 82% 29.33 in 10.0 miles SSE 8.1 mph 17.3 mph N/A   Overcast
9:55 AM 51.8°F 46.4°F 82% 29.33 in 10.0 miles SSE 10.4 mph 18.4 mph N/A   Overcast
10:15 AM 51.8°F 46.4°F 82% 29.35 in 10.0 miles SSE 8.1 mph 18.4 mph N/A Rain Light Rain
10:35 AM 50.0°F 46.4°F 87% 29.35 in 8.0 miles SSE 9.2 mph 17.3 mph N/A Rain Light Rain
11:15 AM 51.8°F 46.4°F 82% 29.35 in 7.0 miles South 9.2 mph 18.4 mph N/A Rain Light Rain
11:35 AM 51.8°F 46.4°F 82% 29.35 in 8.0 miles South 5.8 mph 17.3 mph N/A Rain Light Rain
11:55 AM 51.8°F 46.4°F 82% 29.35 in 10.0 miles SSE 10.4 mph 17.3 mph N/A   Mostly Cloudy
12:15 PM 51.8°F 46.4°F 82% 29.34 in 10.0 miles South 6.9 mph - N/A Rain Light Rain
12:35 PM 50.0°F 48.2°F 94% 29.34 in 3.0 miles South 8.1 mph 19.6 mph N/A Rain Rain
12:55 PM 51.8°F 48.2°F 88% 29.33 in 10.0 miles SSE 9.2 mph - N/A   Scattered Clouds
1:15 PM 51.8°F 46.4°F 82% 29.33 in 10.0 miles SSE 8.1 mph 18.4 mph N/A   Clear
1:35 PM 53.6°F 46.4°F 77% 29.34 in 10.0 miles SSE 11.5 mph 23.0 mph N/A Rain Light Rain
1:55 PM 51.8°F 48.2°F 88% 29.35 in 5.0 miles South 10.4 mph 18.4 mph N/A Rain Light Rain
2:15 PM 50.0°F 48.2°F 94% 29.36 in 3.0 miles South 9.2 mph - N/A Rain Light Rain
2:35 PM 50.0°F 48.2°F 94% 29.36 in 5.0 miles South 10.4 mph - N/A Rain Light Rain
2:55 PM 50.0°F 48.2°F 94% 29.36 in 7.0 miles South 9.2 mph 16.1 mph N/A Rain Light Rain
3:15 PM 50.0°F 48.2°F 94% 29.36 in 6.0 miles South 6.9 mph - N/A Rain Light Rain
3:35 PM 50.0°F 48.2°F 94% 29.37 in 10.0 miles South 6.9 mph - N/A   Scattered Clouds
3:55 PM 50.0°F 48.2°F 94% 29.37 in 10.0 miles South 8.1 mph - N/A   Partly Cloudy
4:15 PM 50.0°F 48.2°F 94% 29.37 in 10.0 miles South 10.4 mph - N/A   Clear
4:35 PM 50.0°F 48.2°F 94% 29.37 in 10.0 miles South 9.2 mph - N/A   Mostly Cloudy
4:55 PM 51.8°F 46.4°F 82% 29.36 in 10.0 miles South 10.4 mph 19.6 mph N/A   Mostly Cloudy
5:15 PM 51.8°F 46.4°F 82% 29.36 in 10.0 miles South 11.5 mph 19.6 mph N/A   Clear
5:35 PM 50.0°F 46.4°F 87% 29.36 in 10.0 miles South 10.4 mph 20.7 mph N/A   Partly Cloudy
5:55 PM 50.0°F 46.4°F 87% 29.36 in 10.0 miles South 10.4 mph 17.3 mph N/A Rain Light Rain
6:15 PM 50.0°F 48.2°F 94% 29.36 in 8.0 miles South 8.1 mph 18.4 mph N/A Rain Light Rain
6:35 PM 50.0°F 48.2°F 94% 29.36 in 9.0 miles South 10.4 mph 16.1 mph N/A Rain Light Rain
6:55 PM 50.0°F 46.4°F 87% 29.35 in 10.0 miles South 10.4 mph 18.4 mph N/A Rain Light Rain
7:15 PM 50.0°F 46.4°F 87% 29.35 in 10.0 miles South 9.2 mph 23.0 mph N/A   Mostly Cloudy
7:35 PM 50.0°F 44.6°F 82% 29.34 in 10.0 miles South 12.7 mph 21.9 mph N/A   Scattered Clouds
7:55 PM 50.0°F 44.6°F 82% 29.34 in 10.0 miles South 10.4 mph 26.5 mph N/A   Partly Cloudy
8:15 PM 50.0°F 44.6°F 82% 29.34 in 10.0 miles South 12.7 mph 27.6 mph N/A   Mostly Cloudy
8:35 PM 50.0°F 44.6°F 82% 29.33 in 10.0 miles South 13.8 mph 20.7 mph N/A   Mostly Cloudy
8:55 PM 50.0°F 44.6°F 82% 29.32 in 10.0 miles South 11.5 mph 23.0 mph N/A   Partly Cloudy
9:15 PM 50.0°F 44.6°F 82% 29.31 in 10.0 miles South 11.5 mph 24.2 mph N/A Rain Light Rain
9:35 PM 50.0°F 44.6°F 82% 29.31 in 10.0 miles South 12.7 mph 26.5 mph N/A   Partly Cloudy
9:55 PM 50.0°F 44.6°F 82% 29.31 in 10.0 miles South 11.5 mph 24.2 mph N/A   Partly Cloudy
10:15 PM 50.0°F 44.6°F 82% 29.30 in 10.0 miles South 12.7 mph 20.7 mph N/A   Partly Cloudy
10:35 PM 50.0°F 44.6°F 82% 29.30 in 10.0 miles South 13.8 mph 21.9 mph N/A   Scattered Clouds
10:55 PM 50.0°F 44.6°F 82% 29.31 in 10.0 miles South 9.2 mph 20.7 mph N/A   Scattered Clouds
11:15 PM 50.0°F 44.6°F 82% 29.31 in 10.0 miles SSE 10.4 mph 24.2 mph N/A   Clear
11:35 PM 50.0°F 44.6°F 82% 29.30 in 10.0 miles South 12.7 mph 25.3 mph N/A   Partly Cloudy
11:55 PM 50.0°F 44.6°F 82% 29.30 in 10.0 miles South 11.5 mph 24.2 mph N/A   Partly Cloudy
Moon Phase
Nov. 30 Dec. 06 Dec. 13 Dec. 20 Dec. 28
Sunrise:07:42 AM (PST) Moon Rise:06:19 PM (PST)
Sunset:04:18 PM (PST) Moon Set:09:17 AM (PST)

Copyright © 2014 The Weather Underground, Inc.